Location: Baumgarten
(49.0970°N, 12.7493°E)
Time: 17:12:02
(UTC+00:00)

Cosmos 2228 Rocket - Pass Details

Date: 05 July 2020
Orbit: 617 x 653 km, 82.5° (Epoch: 12 August)

Event Time Altitude Azimuth Distance (km) Brightness Sun altitude
Rises 22:50:23 0° 355° (N) 2,989 8.3 -18.0°
Reaches altitude 10° 22:52:46 10° 3° (N) 2,072 7.0 -18.1°
Maximum altitude 22:57:08 41° 74° (ENE) 948 4.0 -18.1°
Enters shadow 22:59:20 25° 128° (SE) 1,324 4.4 -18.2°
